This demonstration page uses our WeatherBlox Daily Observations layout. Learn more.

Left ArrowRight Arrow

34.02893, -84.19858

Hourly Observations for April 6, 2022

Temp ( °F °C ) Dew Point ( °F °C ) Humidity (%) Winds ( mph kmh ) Pressure ( in mb ) Visibility ( mi km ) Precip ( " mm )
12:53 am 00:53 Cloudy 60 15.6 59 15 96 96 SW 12 19 29.76 1008 10 16 0.00 0.00
1:53 am 01:53 Cloudy 60 15.6 59 15 96 96 WSW 8 13 29.76 1008 10 16 0.00 0.00
2:53 am 02:53 Cloudy 60 15.6 59 15 96 96 SW 7 11 29.75 1008 10 16 0.00 0.00
3:53 am 03:53 Cloudy 60 15.6 59 15 96 96 SW 9 15 29.73 1007 10 16 0.00 0.00
4:53 am 04:53 Cloudy with Mist and Fog 60 15.6 59 15 96 96 Calm 29.73 1007 6 10 0.00 0.00
5:41 am 05:41 Cloudy with Mist and Fog 60 15.6 59 15 96 96 Calm 29.73 1007 3 4 0.00 0.00
5:53 am 05:53 Cloudy with Mist and Fog 60 15.6 59 15 96 96 Calm 29.72 1007 2 2 0.00 0.00
6:18 am 06:18 Mostly Cloudy with Mist and Fog 60 15.6 60 15.6 100 100 Calm 29.73 1007 1 1 0.00 0.00
6:53 am 06:53 Mostly Cloudy with Mist and Fog 60 15.6 60 15.6 100 100 Calm 29.74 1007 1 1 0.00 0.00
7:06 am 07:06 Mostly Cloudy with Fog 60 15.6 60 15.6 100 100 Calm 29.75 1007 1 1 0.00 0.00
7:46 am 07:46 Mostly Cloudy with Fog 60 15.6 60 15.6 100 100 Calm 29.76 1008 0 0 0.00 0.00
7:53 am 07:53 Mostly Cloudy with Fog 60 15.6 60 15.6 100 100 Calm 29.75 1008 0 0 0.00 0.00
8:12 am 08:12 Mostly Cloudy with Fog 60 15.6 60 15.6 100 100 Calm 29.77 1008 1 1 0.00 0.00
8:21 am 08:21 Mostly Cloudy with Fog 60 15.6 60 15.6 100 100 Calm 29.77 1008 1 1 0.00 0.00
8:39 am 08:39 Cloudy with Mist and Fog 60 15.6 60 15.6 100 100 Calm 29.77 1008 1 1 0.00 0.00
8:43 am 08:43 Cloudy with Mist and Fog 60 15.6 60 15.6 100 100 Calm 29.77 1008 1 2 0.00 0.00
8:53 am 08:53 Cloudy with Mist and Fog 60 15.6 60 15.6 100 100 Calm 29.77 1008 1 2 0.00 0.00
9:00 am 09:00 Cloudy with Mist and Fog 61 16.1 61 16.1 100 100 Calm 29.77 1008 3 4 0.00 0.00
9:07 am 09:07 Cloudy with Mist and Fog 61 16.1 61 16.1 100 100 Calm 29.78 1008 1 2 0.00 0.00
9:53 am 09:53 Cloudy with Mist and Fog 61 16.1 61 16.1 100 100 VRB 3 6 29.77 1008 1 1 0.00 0.00
10:53 am 10:53 Cloudy with Mist and Fog 63 17.2 63 17.2 100 100 SE 3 6 29.77 1008 1 1 0.00 0.00
11:53 am 11:53 Cloudy with Mist and Fog 64 17.8 64 17.8 100 100 Calm 29.77 1008 1 1 0.00 0.00
12:00 pm 12:00 Cloudy with Mist and Fog 64 17.8 64 17.8 100 100 SE 3 6 29.77 1008 2 2 0.00 0.00
12:18 pm 12:18 Cloudy with Mist and Fog 65 18.3 65 18.3 100 100 VRB 6 9 29.76 1008 2 3 0.00 0.00
12:24 pm 12:24 Cloudy with Mist and Fog 65 18.3 65 18.3 100 100 SSE 5 7 29.76 1008 2 3 0.00 0.00
12:36 pm 12:36 Cloudy with Mist and Fog 65 18.3 65 18.3 100 100 S 5 7 29.76 1008 2 3 0.00 0.00
12:53 pm 12:53 Cloudy with Mist and Fog 66 18.9 65 18.3 96 96 S 5 7 29.75 1008 2 3 0.00 0.00
1:41 pm 13:41 Cloudy with Light Rain 67 19.4 66 18.9 97 97 S 3 6 29.76 1008 1 2 0.00 0.00
1:53 pm 13:53 Cloudy with Light Rain 67 19.4 67 19.4 100 100 Calm 29.75 1007 1 2 0.01 0.25
2:26 pm 14:26 Cloudy with Light Rain 69 20.6 68 20 96 96 S 3 6 29.74 1007 3 4 0.03 0.76
2:33 pm 14:33 Cloudy with Mist and Fog 70 21.1 69 20.6 97 97 Calm 29.74 1007 4 6 0.03 0.76
2:53 pm 14:53 Cloudy with Mist and Fog 70 21.1 69 20.6 97 97 VRB 3 6 29.72 1007 6 10 0.03 0.76
3:01 pm 15:01 Cloudy 71 21.7 69 20.6 94 94 VRB 3 6 29.71 1006 7 11 0.00 0.00
3:53 pm 15:53 Cloudy 70 21.1 68 20 93 93 SW 3 6 29.70 1006 7 11 0.00 0.00
3:58 pm 15:58 Cloudy with Nearby Thunderstorms 71 21.7 68 20 90 90 SW 5 7 29.70 1006 8 13 0.00 0.00
4:11 pm 16:11 Cloudy with Nearby Thunderstorms 70 21.1 68 20 93 93 SSW 7 11 29.71 1006 8 13 0.00 0.00
4:23 pm 16:23 Mostly Cloudy with Nearby Thunderstorms 70 21.1 68 20 93 93 SW 9 15 29.69 1005 7 11 0.00 0.00
4:35 pm 16:35 Mostly Cloudy 70 21.1 68 20 93 93 WSW 5 7 29.68 1005 7 11 0.00 0.00
4:53 pm 16:53 Mostly Sunny 69 20.6 68 20 96 96 S 5 7 29.66 1004 8 13 0.00 0.00
5:53 pm 17:53 Sunny 69 20.6 67 19.4 93 93 S 5 7 29.62 1003 10 16 0.00 0.00
6:23 pm 18:23 Mostly Sunny 67 19.4 66 18.9 97 97 SE 6 9 29.64 1004 7 11 0.00 0.00
6:53 pm 18:53 Sunny 67 19.4 65 18.3 93 93 S 6 9 29.67 1005 10 16 0.00 0.00
7:44 pm 19:44 Partly Cloudy 66 18.9 65 18.3 96 96 SE 6 9 29.66 1004 10 16 0.00 0.00
7:53 pm 19:53 Partly Cloudy 66 18.9 65 18.3 96 96 VRB 5 7 29.66 1004 10 16 0.00 0.00
8:29 pm 20:29 Mostly Cloudy 66 18.9 65 18.3 96 96 SSE 3 6 29.67 1005 10 16 0.00 0.00
8:53 pm 20:53 Cloudy 66 18.9 65 18.3 96 96 VRB 3 6 29.66 1005 10 16 0.00 0.00
9:53 pm 21:53 Cloudy 65 18.3 64 17.8 97 97 S 6 9 29.67 1005 10 16 0.00 0.00
10:28 pm 22:28 Mostly Cloudy with Nearby Thunderstorms 65 18.3 63 17.2 93 93 S 9 15 29.66 1004 10 16 0.00 0.00
10:53 pm 22:53 Mostly Cloudy with Thunderstorms 65 18.3 63 17.2 93 93 WSW 8 13 29.68 1005 10 16 0.00 0.00
11:01 pm 23:01 Mostly Cloudy with Thunderstorms 65 18.3 64 17.8 97 97 VRB 7 11 29.70 1006 5 8 0.03 0.76
11:09 pm 23:09 Cloudy with Strong Thunderstorms 66 18.9 64 17.8 93 93 WNW 14 22 29.72 1006 3 5 0.09 2.29
11:11 pm 23:11 Cloudy with Strong Thunderstorms 67 19.4 64 17.8 91 91 W 14 22 29.71 1006 2 3 0.16 4.06
11:16 pm 23:16 Cloudy with Strong Thunderstorms 66 18.9 64 17.8 93 93 VRB 3 6 29.70 1006 1 1 0.35 8.89
11:24 pm 23:24 Cloudy with Strong Thunderstorms 65 18.3 65 18.3 100 100 Calm 29.70 1006 1 2 0.43 10.92
11:27 pm 23:27 Cloudy with Thunderstorms 65 18.3 65 18.3 100 100 S 6 9 29.70 1006 2 3 0.43 10.92
11:34 pm 23:34 Cloudy with Thunderstorms 65 18.3 64 17.8 97 97 S 10 17 29.70 1006 5 8 0.45 11.43
11:43 pm 23:43 Cloudy with Thunderstorms 65 18.3 64 17.8 97 97 S 3 6 29.67 1005 6 10 0.45 11.43
11:49 pm 23:49 Cloudy with Thunderstorms 64 18 64 18 100 100 W 8 13 29.68 1005 9 14 0.46 11.68
11:53 pm 23:53 Cloudy with Nearby Thunderstorms 65 18.3 64 17.8 97 97 WSW 10 17 29.68 1005 10 16 0.46 11.68

Powered by AerisWeather